This is the latest recevied weather packets stored in our database for station/object N7CEE-2. If no packets are shown the sender has not sent any weather packets the latest 10 day(s).
| Time | Temp. | Humidity | Pressure | Rain* | Wind** | Luminosity | Snow |
|---|---|---|---|---|---|---|---|
| 1777676674 | 30° C | 24% | 1011.2 hPa | 0 mm | - | 557 W/m² | - |
| 1777676371 | 30.56° C | 23% | 1011.2 hPa | 0 mm | - | 575 W/m² | - |
| 1777676069 | 30.56° C | 24% | 1011.3 hPa | 0 mm | - | 592 W/m² | - |
| 1777675764 | 30.56° C | 24% | 1011.2 hPa | 0 mm | - | 613 W/m² | - |
| 1777675462 | 30° C | 24% | 1011.3 hPa | 0 mm | - | 626 W/m² | - |
| 1777675159 | 30° C | 24% | 1011.5 hPa | 0 mm | - | 650 W/m² | - |
| 1777674855 | 30° C | 24% | 1011.5 hPa | 0 mm | - | 663 W/m² | - |
| 1777674551 | 30° C | 24% | 1011.6 hPa | 0 mm | - | 682 W/m² | - |
| 1777674249 | 30.56° C | 24% | 1011.6 hPa | 0 mm | - | 699 W/m² | - |
| 1777673945 | 30.56° C | 24% | 1011.7 hPa | 0 mm | - | 716 W/m² | - |
| 1777673642 | 30.56° C | 24% | 1011.6 hPa | 0 mm | - | 729 W/m² | - |
| 1777673340 | 29.44° C | 25% | 1012 hPa | 0 mm | - | 743 W/m² | - |
| 1777673037 | 30° C | 25% | 1011.9 hPa | 0 mm | - | 759 W/m² | - |
| 1777672733 | 30° C | 23% | 1011.7 hPa | 0 mm | - | 770 W/m² | - |
| 1777672429 | 30° C | 23% | 1012.2 hPa | 0 mm | - | 785 W/m² | - |
| 1777672125 | 30° C | 23% | 1012.3 hPa | 0 mm | - | 796 W/m² | - |
| 1777671820 | 30° C | 23% | 1012.2 hPa | 0 mm | - | 812 W/m² | - |
| 1777671517 | 29.44° C | 24% | 1012.4 hPa | 0 mm | - | 820 W/m² | - |
| 1777671213 | 30° C | 24% | 1012.4 hPa | 0 mm | - | 831 W/m² | - |
| 1777670909 | 30.56° C | 24% | 1012.5 hPa | 0 mm | - | 840 W/m² | - |
| 1777670606 | 29.44° C | 24% | 1012.6 hPa | 0 mm | - | 852 W/m² | - |
| 1777670303 | 29.44° C | 25% | 1012.6 hPa | 0 mm | - | 860 W/m² | - |
| 1777670001 | 30° C | 25% | 1012.5 hPa | 0 mm | - | 869 W/m² | - |
| 1777669697 | 30° C | 25% | 1012.5 hPa | 0 mm | - | 878 W/m² | - |
| 1777669394 | 28.89° C | 26% | 1012.5 hPa | 0 mm | - | 887 W/m² | - |
* Rain latest hour (hover to see other rain measurements)
** Current wind speed in m/s (hover to see current wind gust speed)